| time (UTC) | temp F | wind direction | speed MPH | gust MPH | rain 1hr in | rain 24hr in | rain mn in | humidity % | barometer mb |
| 20260507014739 | 63 | 278 | 6.0 | 9.0 | 0.00 | 0.00 | 0.00 | 33 | 1017.5 |
| 20260507014236 | 64 | 259 | 4.0 | 4.0 | 0.00 | 0.00 | 0.00 | 33 | 1017.4 |
| 20260507013732 | 64 | 231 | 9.0 | 10.0 | 0.00 | 0.00 | 0.00 | 33 | 1017.2 |
| 20260507013230 | 64 | 266 | 6.0 | 9.0 | 0.00 | 0.00 | 0.00 | 32 | 1017.7 |
| 20260507012727 | 65 | 250 | 8.0 | 10.0 | 0.00 | 0.00 | 0.00 | 32 | 1017.2 |
| 20260507012222 | 65 | 338 | 7.0 | 8.0 | 0.00 | 0.00 | 0.00 | 31 | 1017.3 |
| 20260507011720 | 66 | 291 | 10.0 | 11.0 | 0.00 | 0.00 | 0.00 | 31 | 1017.4 |
| 20260507011217 | 66 | 329 | 4.0 | 6.0 | 0.00 | 0.00 | 0.00 | 30 | 1017.3 |
| 20260507010716 | 66 | 280 | 7.0 | 9.0 | 0.00 | 0.00 | 0.00 | 30 | 1017.3 |
| 20260507010212 | 67 | 303 | 6.0 | 8.0 | 0.00 | 0.00 | 0.00 | 30 | 1017.1 |
| 20260507005710 | 67 | 314 | 9.0 | 11.0 | 0.00 | 0.00 | 0.00 | 30 | 1017.4 |
| 20260507005206 | 68 | 296 | 9.0 | 13.0 | 0.00 | 0.00 | 0.00 | 30 | 1017.5 |
| 20260507004703 | 68 | 253 | 5.0 | 10.0 | 0.00 | 0.00 | 0.00 | 29 | 1017.3 |
| 20260507004201 | 68 | 98 | 0.0 | 0.0 | 0.00 | 0.00 | 0.00 | 29 | 1017.3 |
| 20260507003657 | 69 | 307 | 6.0 | 7.0 | 0.00 | 0.00 | 0.00 | 27 | 1017.3 |
| 20260507003157 | 68 | 263 | 3.0 | 3.0 | 0.00 | 0.00 | 0.00 | 27 | 1017.1 |
| 20260507002653 | 69 | 234 | 4.0 | 6.0 | 0.00 | 0.00 | 0.00 | 27 | 1016.8 |
| 20260507002149 | 68 | 236 | 12.0 | 14.0 | 0.00 | 0.00 | 0.00 | 30 | 1017.0 |
| 20260507001646 | 68 | 258 | 4.0 | 4.0 | 0.00 | 0.00 | 0.00 | 29 | 1017.1 |
| 20260507001144 | 69 | 14 | 3.0 | 3.0 | 0.00 | 0.00 | 0.00 | 28 | 1017.1 |
| 20260507000640 | 69 | 112 | 0.0 | 1.0 | 0.00 | 0.00 | 0.00 | 27 | 1017.1 |
| 20260507000135 | 68 | 85 | 1.0 | 2.0 | 0.00 | 0.00 | 0.00 | 27 | 1017.1 |
| 20260506235633 | 68 | 242 | 5.0 | 6.0 | 0.00 | 0.00 | 0.00 | 27 | 1016.8 |
| 20260506235128 | 70 | 280 | 6.0 | 7.0 | 0.00 | 0.00 | 0.00 | 26 | 1017.0 |
| 20260506234626 | 70 | 23 | 6.0 | 8.0 | 0.00 | 0.00 | 0.00 | 28 | 1017.0 |
| 20260506234123 | 68 | 323 | 4.0 | 6.0 | 0.00 | 0.00 | 0.00 | 28 | 1017.1 |
| 20260506233620 | 68 | 235 | 8.0 | 9.0 | 0.00 | 0.00 | 0.00 | 28 | 1017.2 |
| 20260506233117 | 70 | 229 | 3.0 | 4.0 | 0.00 | 0.00 | 0.00 | 27 | 1016.8 |
| 20260506232612 | 67 | 197 | 4.0 | 6.0 | 0.00 | 0.00 | 0.00 | 29 | 1017.0 |
| 20260506232108 | 69 | 226 | 4.0 | 6.0 | 0.00 | 0.00 | 0.00 | 29 | 1017.0 |
| 20260506231605 | 70 | 118 | 0.0 | 1.0 | 0.00 | 0.00 | 0.00 | 27 | 1016.8 |
| 20260506231104 | 71 | 147 | 2.0 | 2.0 | 0.00 | 0.00 | 0.00 | 26 | 1017.1 |
| 20260506230600 | 69 | 252 | 4.0 | 4.0 | 0.00 | 0.00 | 0.00 | 27 | 1017.0 |
| 20260506230057 | 70 | 240 | 5.0 | 9.0 | 0.00 | 0.00 | 0.00 | 27 | 1016.8 |
| 20260506225554 | 69 | 251 | 4.0 | 6.0 | 0.00 | 0.00 | 0.00 | 27 | 1016.8 |
| 20260506225050 | 67 | 125 | 1.0 | 2.0 | 0.00 | 0.00 | 0.00 | 28 | 1017.1 |
| 20260506224547 | 66 | 112 | 2.0 | 2.0 | 0.00 | 0.00 | 0.00 | 28 | 1017.0 |
| 20260506224044 | 66 | 94 | 0.0 | 1.0 | 0.00 | 0.00 | 0.00 | 28 | 1017.1 |
| 20260506223540 | 67 | 340 | 2.0 | 3.0 | 0.00 | 0.00 | 0.00 | 28 | 1017.2 |
| 20260506223036 | 67 | 28 | 2.0 | 2.0 | 0.00 | 0.00 | 0.00 | 28 | 1017.2 |
| 20260506222533 | 68 | 307 | 5.0 | 6.0 | 0.00 | 0.00 | 0.00 | 27 | 1017.1 |
| 20260506222029 | 68 | 333 | 6.0 | 7.0 | 0.00 | 0.00 | 0.00 | 28 | 1017.3 |
| 20260506221527 | 67 | 55 | 4.0 | 6.0 | 0.00 | 0.00 | 0.00 | 28 | 1017.2 |
| 20260506221025 | 66 | 40 | 8.0 | 9.0 | 0.00 | 0.00 | 0.00 | 28 | 1017.3 |
| 20260506220521 | 65 | 36 | 2.0 | 2.0 | 0.00 | 0.00 | 0.00 | 29 | 1017.2 |
| 20260506220016 | 65 | 101 | 2.0 | 3.0 | 0.00 | 0.00 | 0.00 | 30 | 1017.4 |
| 20260506215513 | 68 | 4 | 7.0 | 10.0 | 0.00 | 0.00 | 0.00 | 28 | 1017.3 |
| 20260506215009 | 68 | 98 | 1.0 | 2.0 | 0.00 | 0.00 | 0.00 | 27 | 1017.5 |
| 20260506214506 | 66 | 135 | 2.0 | 2.0 | 0.00 | 0.00 | 0.00 | 27 | 1017.8 |
| 20260506214003 | 66 | 99 | 1.0 | 2.0 | 0.00 | 0.00 | 0.00 | 27 | 1017.8 |
| 20260506213502 | 66 | 94 | 0.0 | 1.0 | 0.00 | 0.00 | 0.00 | 28 | 1017.5 |
| 20260506212958 | 66 | 45 | 5.0 | 7.0 | 0.00 | 0.00 | 0.00 | 28 | 1017.7 |
| 20260506212454 | 68 | 84 | 2.0 | 2.0 | 0.00 | 0.00 | 0.00 | 27 | 1017.7 |
| 20260506211949 | 69 | 152 | 0.0 | 1.0 | 0.00 | 0.00 | 0.00 | 26 | 1017.7 |
| 20260506211445 | 66 | 184 | 4.0 | 4.0 | 0.00 | 0.00 | 0.00 | 28 | 1017.8 |
| 20260506210943 | 65 | 145 | 1.0 | 1.0 | 0.00 | 0.00 | 0.00 | 29 | 1018.1 |
| 20260506210439 | 66 | 98 | 1.0 | 2.0 | 0.00 | 0.00 | 0.00 | 28 | 1018.0 |
| 20260506205937 | 67 | 329 | 2.0 | 3.0 | 0.00 | 0.00 | 0.00 | 28 | 1018.2 |
| 20260506205433 | 68 | 41 | 7.0 | 9.0 | 0.00 | 0.00 | 0.00 | 27 | 1018.1 |
| 20260506204928 | 68 | 47 | 3.0 | 3.0 | 0.00 | 0.00 | 0.00 | 27 | 1018.0 |
| 20260506204427 | 65 | 88 | 1.0 | 1.0 | 0.00 | 0.00 | 0.00 | 28 | 1018.1 |
| 20260506203924 | 65 | 69 | 7.0 | 8.0 | 0.00 | 0.00 | 0.00 | 29 | 1018.4 |
| 20260506203420 | 66 | 120 | 1.0 | 1.0 | 0.00 | 0.00 | 0.00 | 28 | 1018.2 |
| 20260506202918 | 65 | 120 | 0.0 | 1.0 | 0.00 | 0.00 | 0.00 | 29 | 1018.4 |
| 20260506202414 | 65 | 68 | 5.0 | 6.0 | 0.00 | 0.00 | 0.00 | 29 | 1018.1 |
| 20260506201911 | 64 | 58 | 2.0 | 2.0 | 0.00 | 0.00 | 0.00 | 29 | 1018.4 |
| 20260506201409 | 65 | 33 | 7.0 | 8.0 | 0.00 | 0.00 | 0.00 | 29 | 1018.4 |
| 20260506200905 | 66 | 354 | 6.0 | 7.0 | 0.00 | 0.00 | 0.00 | 29 | 1018.2 |
| 20260506200401 | 65 | 195 | 2.0 | 3.0 | 0.00 | 0.00 | 0.00 | 29 | 1018.1 |
| 20260506195857 | 65 | 34 | 4.0 | 4.0 | 0.00 | 0.00 | 0.00 | 29 | 1018.2 |
| 20260506195355 | 64 | 18 | 2.0 | 4.0 | 0.00 | 0.00 | 0.00 | 29 | 1018.6 |
| 20260506194851 | 64 | 16 | 4.0 | 6.0 | 0.00 | 0.00 | 0.00 | 30 | 1018.5 |
| 20260506194348 | 63 | 322 | 6.0 | 7.0 | 0.00 | 0.00 | 0.00 | 31 | 1018.5 |
| 20260506193846 | 64 | 336 | 7.0 | 8.0 | 0.00 | 0.00 | 0.00 | 30 | 1018.5 |
| 20260506193342 | 64 | 34 | 7.0 | 9.0 | 0.00 | 0.00 | 0.00 | 29 | 1018.6 |
| 20260506192839 | 64 | 46 | 7.0 | 10.0 | 0.00 | 0.00 | 0.00 | 30 | 1018.6 |
| 20260506192335 | 63 | 51 | 1.0 | 2.0 | 0.00 | 0.00 | 0.00 | 30 | 1018.5 |
| 20260506191833 | 63 | 50 | 3.0 | 4.0 | 0.00 | 0.00 | 0.00 | 30 | 1018.6 |
| 20260506191329 | 62 | 62 | 2.0 | 2.0 | 0.00 | 0.00 | 0.00 | 31 | 1018.5 |
| 20260506190826 | 62 | 219 | 4.0 | 7.0 | 0.00 | 0.00 | 0.00 | 31 | 1018.6 |
| 20260506190322 | 63 | 16 | 4.0 | 7.0 | 0.00 | 0.00 | 0.00 | 30 | 1018.6 |
| 20260506185819 | 62 | 60 | 4.0 | 8.0 | 0.00 | 0.00 | 0.00 | 30 | 1018.4 |
| 20260506185316 | 62 | 58 | 4.0 | 6.0 | 0.00 | 0.00 | 0.00 | 30 | 1018.5 |
| 20260506184813 | 63 | 39 | 6.0 | 10.0 | 0.00 | 0.00 | 0.00 | 30 | 1018.2 |
| 20260506184310 | 62 | 67 | 4.0 | 4.0 | 0.00 | 0.00 | 0.00 | 30 | 1018.5 |
| 20260506183808 | 61 | 326 | 6.0 | 7.0 | 0.00 | 0.00 | 0.00 | 30 | 1018.7 |
| 20260506183303 | 61 | 15 | 5.0 | 8.0 | 0.00 | 0.00 | 0.00 | 30 | 1018.6 |
| 20260506182800 | 61 | 118 | 0.0 | 1.0 | 0.00 | 0.00 | 0.00 | 31 | 1018.6 |
| 20260506182257 | 61 | 48 | 4.0 | 6.0 | 0.00 | 0.00 | 0.00 | 30 | 1018.7 |
| 20260506181755 | 63 | 52 | 4.0 | 4.0 | 0.00 | 0.00 | 0.00 | 30 | 1018.5 |
| 20260506181253 | 62 | 140 | 2.0 | 2.0 | 0.00 | 0.00 | 0.00 | 30 | 1018.6 |
| 20260506180749 | 61 | 107 | 0.0 | 1.0 | 0.00 | 0.00 | 0.00 | 32 | 1018.6 |
| 20260506180245 | 60 | 53 | 4.0 | 6.0 | 0.00 | 0.00 | 0.00 | 33 | 1018.8 |
| 20260506175741 | 60 | 52 | 6.0 | 9.0 | 0.00 | 0.00 | 0.00 | 33 | 1018.7 |
| 20260506175239 | 62 | 82 | 2.0 | 3.0 | 0.00 | 0.00 | 0.00 | 32 | 1018.7 |
| 20260506174737 | 62 | 95 | 1.0 | 2.0 | 0.00 | 0.00 | 0.00 | 32 | 1018.6 |
| 20260506174233 | 62 | 95 | 5.0 | 6.0 | 0.00 | 0.00 | 0.00 | 31 | 1018.5 |
| 20260506173731 | 61 | 110 | 1.0 | 2.0 | 0.00 | 0.00 | 0.00 | 33 | 1018.6 |
| 20260506173227 | 60 | 258 | 5.0 | 7.0 | 0.00 | 0.00 | 0.00 | 33 | 1018.6 |
| 20260506172724 | 61 | 51 | 1.0 | 2.0 | 0.00 | 0.00 | 0.00 | 34 | 1018.5 |
| 20260506172221 | 59 | 118 | 2.0 | 3.0 | 0.00 | 0.00 | 0.00 | 33 | 1018.6 |
| 20260506171718 | 58 | 113 | 5.0 | 7.0 | 0.00 | 0.00 | 0.00 | 35 | 1018.5 |
| 20260506171216 | 58 | 97 | 2.0 | 3.0 | 0.00 | 0.00 | 0.00 | 36 | 1018.5 |
| 20260506170713 | 60 | 66 | 2.0 | 2.0 | 0.00 | 0.00 | 0.00 | 35 | 1018.4 |
| 20260506170210 | 59 | 294 | 2.0 | 4.0 | 0.00 | 0.00 | 0.00 | 35 | 1018.5 |
| 20260506165708 | 58 | 169 | 3.0 | 3.0 | 0.00 | 0.00 | 0.00 | 36 | 1018.4 |
| 20260506165204 | 58 | 242 | 4.0 | 6.0 | 0.00 | 0.00 | 0.00 | 36 | 1018.2 |
| 20260506164702 | 58 | 125 | 1.0 | 1.0 | 0.00 | 0.00 | 0.00 | 35 | 1018.2 |
| 20260506164159 | 56 | 211 | 2.0 | 3.0 | 0.00 | 0.00 | 0.00 | 36 | 1018.2 |
| 20260506163655 | 57 | 51 | 2.0 | 3.0 | 0.00 | 0.00 | 0.00 | 36 | 1018.4 |
| 20260506163150 | 56 | 118 | 2.0 | 2.0 | 0.00 | 0.00 | 0.00 | 37 | 1018.5 |
| 20260506162647 | 56 | 356 | 3.0 | 3.0 | 0.00 | 0.00 | 0.00 | 38 | 1018.5 |
| 20260506162144 | 57 | 353 | 4.0 | 4.0 | 0.00 | 0.00 | 0.00 | 36 | 1018.1 |
| 20260506161641 | 57 | 274 | 3.0 | 3.0 | 0.00 | 0.00 | 0.00 | 36 | 1018.2 |
| 20260506161138 | 56 | 222 | 3.0 | 3.0 | 0.00 | 0.00 | 0.00 | 37 | 1018.0 |
| 20260506160636 | 55 | 1 | 3.0 | 3.0 | 0.00 | 0.00 | 0.00 | 38 | 1018.1 |
| 20260506160132 | 55 | 171 | 4.0 | 6.0 | 0.00 | 0.00 | 0.00 | 36 | 1018.2 |
| 20260506155631 | 55 | 233 | 2.0 | 2.0 | 0.00 | 0.00 | 0.00 | 37 | 1018.1 |
| 20260506155128 | 55 | 157 | 2.0 | 3.0 | 0.00 | 0.00 | 0.00 | 38 | 1018.0 |
| 20260506153230 | 54 | 170 | 3.0 | 4.0 | 0.00 | 0.00 | 0.00 | 38 | 1018.1 |
| 20260506152727 | 54 | 149 | 1.0 | 1.0 | 0.00 | 0.00 | 0.00 | 39 | 1017.9 |
| 20260506152224 | 55 | 170 | 2.0 | 2.0 | 0.00 | 0.00 | 0.00 | 38 | 1018.0 |
| 20260506151724 | 53 | 100 | 1.0 | 2.0 | 0.00 | 0.00 | 0.00 | 37 | 1018.0 |
| 20260506151219 | 53 | 98 | 1.0 | 2.0 | 0.00 | 0.00 | 0.00 | 40 | 1017.9 |
| 20260506150716 | 53 | 293 | 4.0 | 6.0 | 0.00 | 0.00 | 0.00 | 42 | 1017.8 |
| 20260506150213 | 53 | 201 | 4.0 | 4.0 | 0.00 | 0.00 | 0.00 | 41 | 1017.9 |
| 20260506145710 | 53 | 345 | 2.0 | 3.0 | 0.00 | 0.00 | 0.00 | 41 | 1017.9 |
| 20260506145207 | 53 | 193 | 2.0 | 3.0 | 0.00 | 0.00 | 0.00 | 41 | 1017.9 |
| 20260506144704 | 52 | 304 | 2.0 | 2.0 | 0.00 | 0.00 | 0.00 | 41 | 1017.7 |
| 20260506144201 | 52 | 325 | 2.0 | 3.0 | 0.00 | 0.00 | 0.00 | 40 | 1017.7 |
| 20260506143659 | 52 | 16 | 2.0 | 3.0 | 0.00 | 0.00 | 0.00 | 41 | 1017.7 |
| 20260506143156 | 51 | 172 | 1.0 | 1.0 | 0.00 | 0.00 | 0.00 | 41 | 1017.5 |
| 20260506142655 | 52 | 16 | 4.0 | 6.0 | 0.00 | 0.00 | 0.00 | 41 | 1017.5 |
| 20260506142152 | 51 | 93 | 0.0 | 0.0 | 0.00 | 0.00 | 0.00 | 46 | 1017.7 |
| 20260506141649 | 52 | 107 | 0.0 | 0.0 | 0.00 | 0.00 | 0.00 | 44 | 1017.5 |
| 20260506141147 | 51 | 131 | 0.0 | 0.0 | 0.00 | 0.00 | 0.00 | 49 | 1017.5 |
| 20260506140645 | 49 | 131 | 1.0 | 1.0 | 0.00 | 0.00 | 0.00 | 49 | 1017.7 |
| 20260506140142 | 49 | 118 | 0.0 | 1.0 | 0.00 | 0.00 | 0.00 | 51 | 1017.7 |
| 20260506135639 | 49 | 126 | 1.0 | 1.0 | 0.00 | 0.00 | 0.00 | 51 | 1017.5 |
| 20260506135135 | 48 | 102 | 1.0 | 2.0 | 0.00 | 0.00 | 0.00 | 51 | 1017.7 |
| 20260506134632 | 48 | 100 | 1.0 | 1.0 | 0.00 | 0.00 | 0.00 | 53 | 1017.4 |
| 20260506134127 | 47 | 98 | 1.0 | 1.0 | 0.00 | 0.00 | 0.00 | 54 | 1017.4 |
| 20260506133625 | 48 | 106 | 0.0 | 0.0 | 0.00 | 0.00 | 0.00 | 54 | 1017.2 |
| 20260506133122 | 46 | 119 | 0.0 | 0.0 | 0.00 | 0.00 | 0.00 | 55 | 1017.2 |
| 20260506132619 | 45 | 180 | 2.0 | 2.0 | 0.00 | 0.00 | 0.00 | 57 | 1017.1 |
| 20260506132116 | 44 | 150 | 2.0 | 2.0 | 0.00 | 0.00 | 0.00 | 57 | 1017.1 |
| 20260506131613 | 42 | 165 | 1.0 | 1.0 | 0.00 | 0.00 | 0.00 | 61 | 1017.2 |
| 20260506131109 | 41 | 159 | 2.0 | 2.0 | 0.00 | 0.00 | 0.00 | 65 | 1017.2 |
| 20260506130607 | 40 | 194 | 3.0 | 3.0 | 0.00 | 0.00 | 0.00 | 67 | 1017.2 |
| 20260506130104 | 39 | 197 | 3.0 | 3.0 | 0.00 | 0.00 | 0.00 | 68 | 1016.8 |
| 20260506125603 | 39 | 159 | 2.0 | 2.0 | 0.00 | 0.00 | 0.00 | 68 | 1017.0 |
| 20260506125100 | 38 | 120 | 0.0 | 0.0 | 0.00 | 0.00 | 0.00 | 69 | 1016.7 |
| 20260506124557 | 38 | 104 | 0.0 | 0.0 | 0.00 | 0.00 | 0.00 | 69 | 1016.8 |
| 20260506124055 | 38 | 103 | 0.0 | 0.0 | 0.00 | 0.00 | 0.00 | 69 | 1016.6 |
| 20260506123552 | 39 | 107 | 0.0 | 0.0 | 0.00 | 0.00 | 0.00 | 67 | 1016.8 |
| 20260506123051 | 41 | 109 | 0.0 | 0.0 | 0.00 | 0.00 | 0.00 | 65 | 1016.6 |
| 20260506122547 | 41 | 140 | 1.0 | 1.0 | 0.00 | 0.00 | 0.00 | 64 | 1016.4 |
| 20260506122045 | 41 | 158 | 1.0 | 1.0 | 0.00 | 0.00 | 0.00 | 63 | 1016.2 |
| 20260506121542 | 40 | 174 | 1.0 | 1.0 | 0.00 | 0.00 | 0.00 | 64 | 1016.4 |
| 20260506121038 | 40 | 180 | 2.0 | 2.0 | 0.00 | 0.00 | 0.00 | 66 | 1016.5 |
| 20260506120537 | 39 | 169 | 2.0 | 2.0 | 0.00 | 0.00 | 0.00 | 66 | 1016.4 |
| 20260506120034 | 39 | 171 | 1.0 | 1.0 | 0.00 | 0.00 | 0.00 | 66 | 1016.6 |
| 20260506115532 | 39 | 187 | 2.0 | 2.0 | 0.00 | 0.00 | 0.00 | 67 | 1016.6 |
| 20260506115030 | 39 | 143 | 1.0 | 1.0 | 0.00 | 0.00 | 0.00 | 65 | 1016.6 |
| 20260506114527 | 39 | 123 | 0.0 | 0.0 | 0.00 | 0.00 | 0.00 | 66 | 1016.6 |
| 20260506114025 | 39 | 118 | 0.0 | 0.0 | 0.00 | 0.00 | 0.00 | 66 | 1016.6 |
| 20260506113523 | 40 | 103 | 0.0 | 0.0 | 0.00 | 0.00 | 0.00 | 64 | 1016.4 |
| 20260506113020 | 40 | 103 | 0.0 | 0.0 | 0.00 | 0.00 | 0.00 | 64 | 1016.5 |
| 20260506112517 | 40 | 104 | 0.0 | 0.0 | 0.00 | 0.00 | 0.00 | 63 | 1016.2 |
| 20260506112014 | 40 | 127 | 0.0 | 0.0 | 0.00 | 0.00 | 0.00 | 64 | 1016.2 |
| 20260506111512 | 40 | 129 | 0.0 | 0.0 | 0.00 | 0.00 | 0.00 | 64 | 1016.2 |
| 20260506111009 | 39 | 132 | 0.0 | 0.0 | 0.00 | 0.00 | 0.00 | 65 | 1016.4 |
| 20260506110507 | 38 | 135 | 1.0 | 1.0 | 0.00 | 0.00 | 0.00 | 67 | 1016.6 |
| 20260506110003 | 38 | 105 | 0.0 | 0.0 | 0.00 | 0.00 | 0.00 | 67 | 1016.4 |
| 20260506105459 | 38 | 105 | 0.0 | 0.0 | 0.00 | 0.00 | 0.00 | 67 | 1016.2 |
| 20260506104957 | 39 | 98 | 0.0 | 1.0 | 0.00 | 0.00 | 0.00 | 66 | 1016.4 |
| 20260506104454 | 41 | 88 | 1.0 | 1.0 | 0.00 | 0.00 | 0.00 | 62 | 1016.1 |
| 20260506103953 | 40 | 115 | 1.0 | 1.0 | 0.00 | 0.00 | 0.00 | 62 | 1016.0 |
| 20260506103449 | 41 | 107 | 0.0 | 1.0 | 0.00 | 0.00 | 0.00 | 62 | 1016.1 |
| 20260506102946 | 41 | 98 | 0.0 | 1.0 | 0.00 | 0.00 | 0.00 | 62 | 1016.2 |
| 20260506102444 | 42 | 134 | 0.0 | 0.0 | 0.00 | 0.00 | 0.00 | 60 | 1016.0 |
| 20260506101941 | 41 | 229 | 1.0 | 2.0 | 0.00 | 0.00 | 0.00 | 62 | 1016.1 |
| 20260506101438 | 42 | 220 | 3.0 | 3.0 | 0.00 | 0.00 | 0.00 | 60 | 1016.2 |
| 20260506100935 | 41 | 195 | 3.0 | 3.0 | 0.00 | 0.00 | 0.00 | 62 | 1016.2 |
| 20260506100434 | 42 | 187 | 2.0 | 2.0 | 0.00 | 0.00 | 0.00 | 60 | 1016.1 |
| 20260506095931 | 42 | 222 | 3.0 | 3.0 | 0.00 | 0.00 | 0.00 | 59 | 1016.2 |
| 20260506095430 | 42 | 156 | 1.0 | 1.0 | 0.00 | 0.00 | 0.00 | 60 | 1016.2 |
| 20260506094925 | 43 | 192 | 2.0 | 2.0 | 0.00 | 0.00 | 0.00 | 57 | 1016.2 |
| 20260506094424 | 43 | 235 | 4.0 | 4.0 | 0.00 | 0.00 | 0.00 | 57 | 1016.4 |
| 20260506093921 | 44 | 200 | 3.0 | 3.0 | 0.00 | 0.00 | 0.00 | 57 | 1016.2 |
| 20260506093419 | 43 | 175 | 3.0 | 3.0 | 0.00 | 0.00 | 0.00 | 57 | 1016.0 |
| 20260506092916 | 43 | 218 | 2.0 | 2.0 | 0.00 | 0.00 | 0.00 | 57 | 1016.0 |
| 20260506092415 | 44 | 111 | 0.0 | 0.0 | 0.00 | 0.00 | 0.00 | 56 | 1016.0 |
| 20260506091910 | 45 | 226 | 5.0 | 6.0 | 0.00 | 0.00 | 0.00 | 55 | 1015.9 |
| 20260506091409 | 44 | 229 | 6.0 | 7.0 | 0.00 | 0.00 | 0.00 | 55 | 1015.8 |
| 20260506090905 | 45 | 228 | 3.0 | 3.0 | 0.00 | 0.00 | 0.00 | 55 | 1015.9 |
| 20260506090403 | 44 | 234 | 4.0 | 6.0 | 0.00 | 0.00 | 0.00 | 55 | 1015.8 |
| 20260506085900 | 45 | 220 | 5.0 | 7.0 | 0.00 | 0.00 | 0.00 | 54 | 1015.8 |
| 20260506085356 | 44 | 227 | 5.0 | 7.0 | 0.00 | 0.00 | 0.00 | 54 | 1015.8 |
| 20260506084852 | 44 | 229 | 4.0 | 4.0 | 0.00 | 0.00 | 0.00 | 56 | 1015.7 |
| 20260506084349 | 44 | 237 | 5.0 | 6.0 | 0.00 | 0.00 | 0.00 | 54 | 1015.7 |
| 20260506083846 | 44 | 258 | 3.0 | 3.0 | 0.00 | 0.00 | 0.00 | 55 | 1015.9 |
| 20260506083343 | 43 | 120 | 0.0 | 1.0 | 0.00 | 0.00 | 0.00 | 55 | 1015.7 |
| 20260506082835 | 44 | 182 | 3.0 | 3.0 | 0.00 | 0.00 | 0.00 | 55 | 1015.9 |
| 20260506082332 | 43 | 238 | 3.0 | 3.0 | 0.00 | 0.00 | 0.00 | 55 | 1015.7 |
| 20260506081828 | 42 | 190 | 2.0 | 3.0 | 0.00 | 0.00 | 0.00 | 57 | 1015.7 |
| 20260506081326 | 44 | 196 | 2.0 | 2.0 | 0.00 | 0.00 | 0.00 | 55 | 1015.8 |
| 20260506080824 | 44 | 85 | 0.0 | 1.0 | 0.00 | 0.00 | 0.00 | 54 | 1015.7 |
| 20260506080319 | 43 | 242 | 3.0 | 3.0 | 0.00 | 0.00 | 0.00 | 58 | 1015.8 |
| 20260506073304 | 42 | 174 | 1.0 | 1.0 | 0.00 | 0.00 | 0.00 | 57 | 1016.2 |
| 20260506072800 | 41 | 149 | 0.0 | 0.0 | 0.00 | 0.00 | 0.00 | 58 | 1015.9 |
| 20260506072259 | 42 | 146 | 1.0 | 1.0 | 0.00 | 0.00 | 0.00 | 56 | 1016.0 |
| 20260506071756 | 42 | 239 | 2.0 | 3.0 | 0.00 | 0.00 | 0.00 | 55 | 1015.8 |
| 20260506071254 | 42 | 170 | 1.0 | 1.0 | 0.00 | 0.00 | 0.00 | 57 | 1015.9 |
| 20260506070750 | 44 | 153 | 1.0 | 1.0 | 0.00 | 0.00 | 0.00 | 53 | 1015.9 |
| 20260506070247 | 43 | 214 | 2.0 | 2.0 | 0.00 | 0.00 | 0.00 | 54 | 1016.0 |
| 20260506062224 | 45 | 231 | 4.0 | 4.0 | 0.00 | 0.00 | 0.00 | 50 | 1015.8 |
| 20260506061720 | 45 | 242 | 4.0 | 6.0 | 0.00 | 0.00 | 0.00 | 51 | 1015.7 |
| 20260506061217 | 45 | 227 | 3.0 | 4.0 | 0.00 | 0.00 | 0.00 | 50 | 1015.5 |
| 20260506060716 | 45 | 209 | 2.0 | 3.0 | 0.00 | 0.00 | 0.00 | 50 | 1015.7 |
| 20260506060213 | 44 | 234 | 6.0 | 7.0 | 0.00 | 0.00 | 0.00 | 51 | 1015.7 |
| 20260506051144 | 47 | 218 | 4.0 | 4.0 | 0.00 | 0.00 | 0.00 | 47 | 1015.5 |
| 20260506050643 | 47 | 209 | 4.0 | 6.0 | 0.00 | 0.00 | 0.00 | 47 | 1015.3 |
| 20260506050139 | 47 | 221 | 4.0 | 4.0 | 0.00 | 0.00 | 0.00 | 48 | 1015.5 |
| 20260506045132 | 46 | 222 | 4.0 | 6.0 | 0.00 | 0.00 | 0.00 | 48 | 1015.3 |
| 20260506044631 | 46 | 225 | 5.0 | 6.0 | 0.00 | 0.00 | 0.00 | 49 | 1015.3 |
| 20260506044127 | 47 | 216 | 4.0 | 4.0 | 0.00 | 0.00 | 0.00 | 49 | 1015.1 |
| 20260506043624 | 47 | 221 | 4.0 | 4.0 | 0.00 | 0.00 | 0.00 | 49 | 1015.2 |
| 20260506043123 | 46 | 198 | 4.0 | 4.0 | 0.00 | 0.00 | 0.00 | 49 | 1014.8 |
| 20260506042621 | 46 | 210 | 3.0 | 3.0 | 0.00 | 0.00 | 0.00 | 49 | 1015.2 |
| 20260506042119 | 47 | 192 | 4.0 | 4.0 | 0.00 | 0.00 | 0.00 | 49 | 1015.2 |
| 20260506041618 | 47 | 187 | 4.0 | 4.0 | 0.00 | 0.00 | 0.00 | 48 | 1015.1 |
| 20260506041114 | 47 | 226 | 4.0 | 4.0 | 0.00 | 0.00 | 0.00 | 48 | 1014.9 |
| 20260506040612 | 47 | 221 | 3.0 | 3.0 | 0.00 | 0.00 | 0.00 | 48 | 1015.2 |
| 20260506040108 | 47 | 212 | 3.0 | 3.0 | 0.00 | 0.00 | 0.00 | 48 | 1015.3 |
| 20260506035605 | 47 | 221 | 3.0 | 3.0 | 0.00 | 0.00 | 0.00 | 48 | 1014.9 |
| 20260506035101 | 48 | 247 | 4.0 | 4.0 | 0.00 | 0.00 | 0.00 | 47 | 1014.9 |
| 20260506034559 | 47 | 220 | 4.0 | 4.0 | 0.00 | 0.00 | 0.00 | 48 | 1014.9 |
| 20260506034055 | 47 | 229 | 5.0 | 6.0 | 0.00 | 0.00 | 0.00 | 48 | 1014.8 |
| 20260506033553 | 47 | 219 | 4.0 | 6.0 | 0.00 | 0.00 | 0.00 | 48 | 1014.7 |
| 20260506033050 | 48 | 238 | 5.0 | 6.0 | 0.00 | 0.00 | 0.00 | 47 | 1014.6 |
| 20260506032547 | 48 | 233 | 4.0 | 4.0 | 0.00 | 0.00 | 0.00 | 47 | 1014.4 |
| 20260506032044 | 48 | 224 | 4.0 | 6.0 | 0.00 | 0.00 | 0.00 | 46 | 1014.4 |
| 20260506031542 | 48 | 220 | 5.0 | 6.0 | 0.00 | 0.00 | 0.00 | 47 | 1014.2 |
| 20260506031038 | 48 | 230 | 5.0 | 6.0 | 0.00 | 0.00 | 0.00 | 47 | 1014.0 |
| 20260506030536 | 48 | 236 | 6.0 | 7.0 | 0.00 | 0.00 | 0.00 | 47 | 1014.1 |
| 20260506030033 | 48 | 217 | 4.0 | 4.0 | 0.00 | 0.00 | 0.00 | 47 | 1014.1 |
| 20260506025530 | 48 | 227 | 5.0 | 6.0 | 0.00 | 0.00 | 0.00 | 46 | 1014.0 |
| 20260506025026 | 49 | 214 | 5.0 | 6.0 | 0.00 | 0.00 | 0.00 | 46 | 1014.0 |
| 20260506024523 | 49 | 218 | 4.0 | 6.0 | 0.00 | 0.00 | 0.00 | 46 | 1013.9 |
| 20260506024020 | 49 | 237 | 6.0 | 7.0 | 0.00 | 0.00 | 0.00 | 46 | 1013.8 |
| 20260506023516 | 49 | 217 | 5.0 | 6.0 | 0.00 | 0.00 | 0.00 | 46 | 1013.5 |
| 20260506023014 | 50 | 240 | 6.0 | 8.0 | 0.00 | 0.00 | 0.00 | 45 | 1013.8 |
| 20260506022511 | 50 | 222 | 4.0 | 4.0 | 0.00 | 0.00 | 0.00 | 45 | 1013.4 |
| 20260506022008 | 50 | 226 | 4.0 | 4.0 | 0.00 | 0.00 | 0.00 | 45 | 1013.3 |
| 20260506021506 | 50 | 271 | 7.0 | 9.0 | 0.00 | 0.00 | 0.00 | 44 | 1013.2 |
| 20260506021003 | 50 | 238 | 5.0 | 7.0 | 0.00 | 0.00 | 0.00 | 44 | 1013.4 |
| 20260506020500 | 50 | 263 | 7.0 | 8.0 | 0.00 | 0.00 | 0.00 | 44 | 1013.4 |
| 20260506015957 | 51 | 250 | 10.0 | 11.0 | 0.00 | 0.00 | 0.00 | 43 | 1013.1 |
| 20260506015454 | 51 | 244 | 5.0 | 7.0 | 0.00 | 0.00 | 0.00 | 43 | 1012.9 |